EW3716 Weather Reports


time (UTC)temp
C
wind
direction
speed
KPH
gust
KPH
rain 1hr
cm
rain 24hr
cm
rain mn
cm
humidity
%
barometer
mb
20260906193349 21 280 0.0 0.0 0.18 0.13 0.13 92 1016.6
20260906192844 21 278 0.0 0.0 0.30 0.13 0.13 92 1016.2
20260906192339 21 296 0.0 0.0 0.13 0.10 0.10 90 1016.1
20260906191839 22 287 0.0 1.6 0.00 0.08 0.08 88 1016.0
20260906191339 22 282 1.6 1.6 0.00 0.08 0.08 87 1016.0
20260906190833 22 284 1.6 1.6 0.00 0.08 0.08 85 1015.8
20260906190332 22 276 1.6 3.2 0.00 0.08 0.08 85 1015.8
20260906185833 22 322 1.6 1.6 0.00 0.08 0.08 85 1015.3
20260906185332 22 281 1.6 3.2 0.00 0.08 0.08 84 1015.3
20260906184826 23 287 1.6 1.6 0.00 0.08 0.08 83 1015.2
20260906184321 23 287 1.6 3.2 0.00 0.08 0.08 83 1015.2
20260906183817 26 324 3.2 4.8 0.00 0.08 0.08 82 1015.4
20260906183313 27 284 0.0 0.0 0.00 0.08 0.08 85 1015.0
20260906182813 27 283 1.6 1.6 0.00 0.08 0.08 85 1014.9
20260906182309 27 278 0.0 0.0 0.00 0.08 0.08 87 1015.3
20260906181809 27 305 0.0 1.6 0.00 0.08 0.08 86 1015.4
20260906181305 26 282 0.0 0.0 0.00 0.08 0.08 87 1015.1
20260906180806 26 300 1.6 1.6 0.00 0.08 0.08 89 1014.7
20260906180301 26 272 1.6 3.2 0.00 0.08 0.08 92 1014.9
20260906175758 26 240 1.6 1.6 0.00 0.08 0.08 92 1014.9
20260906175254 25 134 1.6 4.8 0.00 0.08 0.08 93 1014.9
20260906174752 25 65 1.6 3.2 0.00 0.08 0.08 94 1015.0
20260906174252 25 274 1.6 1.6 0.00 0.08 0.08 93 1015.0
20260906173747 25 42 3.2 4.8 0.00 0.08 0.08 93 1015.1
20260906173243 25 346 3.2 4.8 0.18 0.08 0.08 94 1014.9
20260906172742 25 50 6.4 9.7 0.18 0.08 0.08 93 1015.2
20260906172238 25 303 1.6 1.6 0.00 0.05 0.05 93 1015.4
20260906171738 25 303 3.2 4.8 0.00 0.05 0.05 92 1015.4
20260906171233 25 312 1.6 1.6 0.00 0.05 0.05 92 1015.3
20260906170729 25 318 1.6 3.2 0.00 0.05 0.05 92 1015.5
20260906170224 25 316 0.0 0.0 0.00 0.05 0.05 93 1015.5
20260906165720 25 314 0.0 1.6 0.00 0.05 0.05 93 1015.6
20260906165215 25 298 0.0 0.0 0.00 0.05 0.05 92 1015.3
20260906164715 25 280 0.0 0.0 0.00 0.05 0.05 92 1015.4
20260906164210 26 281 1.6 1.6 0.00 0.05 0.05 92 1015.7
20260906163705 26 280 0.0 1.6 0.00 0.05 0.05 90 1015.3
20260906163202 26 282 0.0 0.0 0.00 0.05 0.05 89 1015.1
20260906162658 26 280 0.0 0.0 0.00 0.05 0.05 90 1014.7
20260906162158 26 282 0.0 0.0 0.00 0.05 0.05 90 1014.5
20260906161653 26 290 0.0 1.6 0.00 0.05 0.05 90 1014.3
20260906161152 26 284 0.0 1.6 0.00 0.05 0.05 91 1014.5
20260906160651 26 284 0.0 0.0 0.00 0.05 0.05 92 1014.4
20260906160150 25 285 0.0 1.6 0.00 0.05 0.05 92 1014.3
20260906155648 25 291 0.0 1.6 0.00 0.05 0.05 92 1014.4
20260906155143 25 282 0.0 0.0 0.00 0.05 0.05 93 1014.1
20260906154639 25 292 0.0 0.0 0.00 0.05 0.05 94 1014.0
20260906154138 25 339 1.6 1.6 0.00 0.05 0.05 94 1014.1
20260906153637 25 283 0.0 0.0 0.00 0.05 0.05 94 1013.9
20260906153133 25 288 0.0 0.0 0.00 0.05 0.05 94 1014.1
20260906152633 25 285 0.0 0.0 0.00 0.05 0.05 94 1014.1
20260906152127 25 287 1.6 3.2 0.00 0.05 0.05 95 1014.1
20260906151621 25 289 0.0 1.6 0.00 0.05 0.05 95 1014.2
20260906151118 25 288 0.0 0.0 0.00 0.05 0.05 96 1014.4
20260906150613 25 279 0.0 0.0 0.00 0.05 0.05 96 1014.1
20260906150108 25 281 0.0 0.0 0.00 0.05 0.05 97 1014.3
20260906145607 25 45 1.6 3.2 0.00 0.05 0.05 97 1014.4
20260906145101 25 282 0.0 0.0 0.00 0.05 0.05 97 1014.5
20260906144556 25 288 0.0 0.0 0.13 0.05 0.05 97 1014.4
20260906144051 25 282 0.0 0.0 0.30 0.05 0.05 97 1014.4
20260906143546 25 289 0.0 0.0 0.18 0.03 0.03 96 1014.5
20260906143043 25 284 0.0 1.6 0.00 0.00 0.00 95 1014.3
20260906142542 25 307 0.0 1.6 0.00 0.00 0.00 95 1014.2
20260906142038 25 280 0.0 1.6 0.00 0.00 0.00 96 1013.8
20260906141537 25 288 0.0 0.0 0.00 0.00 0.00 96 1014.2
20260906141032 25 282 0.0 0.0 0.00 0.00 0.00 96 1014.1
20260906140531 24 280 0.0 0.0 0.00 0.00 0.00 96 1014.2
20260906140031 24 282 0.0 0.0 0.00 0.00 0.00 97 1013.9
20260906135528 24 315 0.0 1.6 0.00 0.00 0.00 97 1013.8
20260906135024 24 282 1.6 1.6 0.00 0.00 0.00 97 1013.8
20260906134519 24 307 1.6 1.6 0.00 0.00 0.00 97 1013.8
20260906134014 24 283 0.0 0.0 0.00 0.00 0.00 98 1014.0
20260906133510 24 287 0.0 0.0 0.00 0.00 0.00 98 1013.7
20260906133005 23 283 0.0 0.0 0.00 0.00 0.00 98 1013.6
20260906132500 23 281 0.0 0.0 0.00 0.00 0.00 98 1013.7
20260906131955 23 280 0.0 1.6 0.00 0.00 0.00 98 1013.6
20260906131451 23 291 1.6 1.6 0.00 0.00 0.00 98 1013.8
20260906130946 23 281 0.0 1.6 0.00 0.00 0.00 98 1013.6
20260906130445 23 281 1.6 1.6 0.00 0.00 0.00 99 1013.6
20260906125940 23 282 0.0 0.0 0.00 0.00 0.00 99 1013.6
20260906125437 23 287 0.0 1.6 0.00 0.00 0.00 99 1013.6
20260906124937 23 284 0.0 1.6 0.00 0.00 0.00 99 1013.6
20260906124433 23 291 0.0 0.0 0.00 0.00 0.00 99 1013.4
20260906123933 23 280 0.0 1.6 0.00 0.00 0.00 99 1013.6
20260906123433 23 290 1.6 1.6 0.00 0.00 0.00 99 1013.4
20260906122933 23 273 0.0 1.6 0.00 0.00 0.00 99 1013.4
20260906122428 23 284 0.0 0.0 0.00 0.00 0.00 99 1013.5
20260906121925 23 277 1.6 1.6 0.00 0.00 0.00 99 1013.5
20260906121420 23 284 1.6 1.6 0.00 0.00 0.00 99 1013.3
20260906120917 23 281 0.0 1.6 0.00 0.00 0.00 99 1013.3
20260906120412 23 310 0.0 1.6 0.00 0.00 0.00 99 1013.5
20260906115908 23 286 0.0 1.6 0.00 0.00 0.00 99 1013.3
20260906115403 23 279 0.0 0.0 0.00 0.00 0.00 99 1013.3
20260906114902 23 277 0.0 0.0 0.00 0.00 0.00 99 1013.2
20260906114358 23 273 0.0 1.6 0.00 0.00 0.00 99 1013.2
20260906113853 23 279 0.0 1.6 0.00 0.00 0.00 99 1013.2
20260906113352 23 277 0.0 1.6 0.00 0.00 0.00 99 1013.0
20260906112848 23 284 0.0 1.6 0.00 0.00 0.00 99 1013.1
20260906112344 23 280 0.0 0.0 0.00 0.00 0.00 99 1013.1
20260906111843 23 279 0.0 0.0 0.00 0.00 0.00 99 1012.9
20260906111343 23 291 0.0 0.0 0.00 0.00 0.00 99 1012.9
20260906110838 23 279 0.0 0.0 0.00 0.00 0.00 99 1012.7
20260906110334 23 283 0.0 0.0 0.00 0.00 0.00 99 1012.6
20260906105833 23 282 0.0 1.6 0.00 0.00 0.00 99 1012.7
20260906105329 23 284 0.0 0.0 0.00 0.00 0.00 99 1012.8
20260906104825 23 285 0.0 1.6 0.00 0.00 0.00 99 1012.7
20260906104323 23 283 0.0 0.0 0.00 0.00 0.00 99 1012.5
20260906103822 23 279 0.0 0.0 0.00 0.00 0.00 99 1012.7
20260906103320 23 276 0.0 1.6 0.00 0.00 0.00 99 1012.6
20260906102817 23 280 0.0 0.0 0.00 0.00 0.00 99 1012.6
20260906102315 23 279 0.0 0.0 0.00 0.00 0.00 99 1012.7
20260906101811 23 289 0.0 0.0 0.00 0.00 0.00 99 1012.7
20260906101306 23 281 0.0 0.0 0.00 0.00 0.00 99 1012.6
20260906100802 23 276 0.0 0.0 0.00 0.00 0.00 98 1012.7
20260906100300 23 280 0.0 0.0 0.00 0.00 0.00 98 1012.8
20260906095756 23 279 0.0 0.0 0.00 0.00 0.00 98 1012.6
20260906095251 23 283 0.0 0.0 0.00 0.00 0.00 98 1012.7
20260906094750 23 275 0.0 0.0 0.00 0.00 0.00 98 1012.6
20260906094245 23 273 0.0 0.0 0.00 0.00 0.00 98 1012.8
20260906093742 23 280 0.0 0.0 0.00 0.00 0.00 98 1012.8
20260906093237 23 279 1.6 1.6 0.00 0.00 0.00 98 1012.9
20260906092732 23 281 0.0 1.6 0.00 0.00 0.00 98 1013.0
20260906092232 23 280 0.0 0.0 0.00 0.00 0.00 97 1013.0
20260906091728 23 282 0.0 0.0 0.00 0.00 0.00 97 1013.0
20260906091224 23 279 0.0 0.0 0.00 0.00 0.00 97 1013.1
20260906090720 23 286 0.0 0.0 0.00 0.00 0.00 97 1013.2
20260906090219 23 283 0.0 1.6 0.00 0.00 0.00 97 1013.1
20260906085719 23 283 0.0 1.6 0.00 0.00 0.00 97 1013.1
20260906085218 23 282 0.0 0.0 0.00 0.00 0.00 97 1013.2
20260906084713 23 281 0.0 0.0 0.00 0.00 0.00 97 1013.3
20260906084212 23 281 0.0 0.0 0.00 0.00 0.00 97 1013.2
20260906083708 23 287 0.0 0.0 0.00 0.00 0.00 97 1013.3
20260906083203 23 280 0.0 0.0 0.00 0.00 0.00 97 1013.2
20260906082658 23 280 0.0 0.0 0.00 0.00 0.00 97 1013.0
20260906082153 23 281 0.0 0.0 0.00 0.00 0.00 97 1013.1
20260906081649 23 283 0.0 0.0 0.00 0.00 0.00 97 1013.0
20260906081144 23 276 0.0 0.0 0.00 0.00 0.00 97 1012.9
20260906080641 23 279 0.0 0.0 0.00 0.00 0.00 97 1012.8
20260906080137 23 279 0.0 0.0 0.00 0.00 0.00 97 1012.7
20260906075636 23 282 0.0 0.0 0.00 0.00 0.00 97 1012.5
20260906075131 23 280 0.0 0.0 0.00 0.00 0.00 97 1012.8
20260906074626 23 280 0.0 0.0 0.00 0.00 0.00 97 1012.7
20260906074125 23 280 0.0 0.0 0.00 0.00 0.00 97 1012.7
20260906073620 23 281 0.0 0.0 0.00 0.00 0.00 97 1012.6
20260906073115 23 283 0.0 0.0 0.00 0.00 0.00 97 1012.7
20260906072610 23 282 0.0 0.0 0.00 0.00 0.00 96 1012.8
20260906072106 23 282 0.0 0.0 0.00 0.00 0.00 96 1012.8
20260906071602 23 282 0.0 0.0 0.00 0.00 0.00 96 1012.8
20260906071057 23 282 0.0 0.0 0.00 0.00 0.00 96 1012.9
20260906070554 23 282 0.0 0.0 0.00 0.00 0.00 96 1013.0
20260906070049 23 293 0.0 0.0 0.00 0.00 0.00 95 1013.0
20260906065548 23 278 0.0 0.0 0.00 0.00 0.00 95 1013.1
20260906065044 23 281 0.0 0.0 0.00 0.00 0.00 95 1013.1
20260906064540 23 281 0.0 0.0 0.00 0.00 0.00 95 1013.2
20260906064034 23 282 0.0 1.6 0.00 0.00 0.00 95 1013.2
20260906063530 23 285 0.0 0.0 0.00 0.00 0.00 95 1013.1
20260906063026 23 279 0.0 0.0 0.00 0.00 0.00 95 1013.1
20260906062521 23 278 0.0 1.6 0.00 0.00 0.00 94 1013.2
20260906062015 23 281 0.0 1.6 0.00 0.00 0.00 94 1013.2
20260906061511 23 280 0.0 0.0 0.00 0.00 0.00 94 1013.1
20260906061010 23 281 0.0 0.0 0.00 0.00 0.00 94 1013.0
20260906060508 23 285 0.0 1.6 0.00 0.00 0.00 94 1013.1
20260906060004 23 283 0.0 0.0 0.00 0.00 0.00 94 1013.1
20260906055459 23 284 0.0 0.0 0.00 0.00 0.00 94 1013.2
20260906054955 23 284 0.0 0.0 0.00 0.00 0.00 93 1013.2
20260906054454 23 283 0.0 0.0 0.00 0.00 0.00 93 1013.1
20260906053950 23 280 0.0 0.0 0.00 0.00 0.00 93 1013.4
20260906053446 23 285 0.0 0.0 0.00 0.00 0.00 93 1013.2
20260906052942 23 279 0.0 0.0 0.00 0.00 0.00 92 1013.0
20260906052438 23 283 0.0 0.0 0.00 0.00 0.00 92 1013.2
20260906051934 23 280 0.0 0.0 0.00 0.00 0.00 92 1013.2
20260906051430 23 282 0.0 0.0 0.00 0.00 0.00 92 1013.1
20260906050925 23 283 0.0 0.0 0.00 0.00 0.00 91 1013.3
20260906050425 23 280 0.0 0.0 0.00 0.00 0.00 91 1013.2
20260906045924 23 284 0.0 0.0 0.00 0.76 0.76 91 1013.1
20260906045423 23 282 0.0 0.0 0.00 0.76 0.76 91 1013.2
20260906044919 23 280 0.0 1.6 0.00 0.76 0.76 91 1013.2
20260906044420 23 283 0.0 0.0 0.00 0.76 0.76 90 1013.2
20260906043915 23 280 0.0 0.0 0.00 0.76 0.76 90 1013.3
20260906043411 23 280 0.0 0.0 0.00 0.76 0.76 90 1013.4
20260906042906 23 281 0.0 0.0 0.00 0.76 0.76 90 1013.6
20260906042405 23 282 0.0 1.6 0.00 0.76 0.76 90 1013.5
20260906041901 23 288 0.0 0.0 0.00 0.76 0.76 90 1013.5
20260906041357 23 276 0.0 1.6 0.00 0.76 0.76 89 1013.6
20260906040856 23 285 0.0 1.6 0.00 0.76 0.76 89 1013.6
20260906040352 23 277 0.0 1.6 0.00 0.76 0.76 89 1013.6
20260906035847 23 277 0.0 0.0 0.00 0.76 0.76 89 1013.8
20260906035342 23 278 0.0 1.6 0.00 0.76 0.76 88 1013.5
20260906034838 23 282 1.6 1.6 0.00 0.76 0.76 88 1013.6
20260906034333 24 298 0.0 0.0 0.00 0.76 0.76 88 1013.5
20260906033829 24 284 0.0 0.0 0.00 0.76 0.76 88 1013.5
20260906033327 24 279 0.0 0.0 0.00 0.76 0.76 87 1013.3
20260906032824 24 279 0.0 0.0 0.00 0.76 0.76 87 1013.4
20260906032320 24 282 0.0 0.0 0.00 0.76 0.76 87 1013.2
20260906031815 24 280 0.0 0.0 0.00 0.76 0.76 86 1013.2
20260906031310 24 281 0.0 1.6 0.00 0.76 0.76 86 1013.1
20260906030810 24 274 3.2 4.8 0.00 0.76 0.76 85 1013.0
20260906030305 24 280 0.0 0.0 0.00 0.76 0.76 85 1013.1
20260906025805 25 278 0.0 0.0 0.00 0.76 0.76 84 1013.4
20260906025259 25 273 0.0 0.0 0.00 0.76 0.76 84 1013.4
20260906024758 25 282 0.0 0.0 0.00 0.76 0.76 84 1013.3
20260906024257 25 277 0.0 0.0 0.00 0.76 0.76 83 1013.3
20260906023753 25 281 0.0 0.0 0.00 0.76 0.76 83 1013.1
20260906023248 25 282 0.0 1.6 0.00 0.76 0.76 82 1013.2
20260906022744 25 277 0.0 0.0 0.00 0.76 0.76 81 1013.0
20260906022239 25 280 0.0 1.6 0.00 0.76 0.76 81 1012.8
20260906021735 25 281 0.0 0.0 0.00 0.76 0.76 81 1013.1
20260906021234 25 279 0.0 0.0 0.00 0.76 0.76 80 1013.1
20260906020729 25 273 0.0 0.0 0.00 0.76 0.76 80 1012.9
20260906020223 25 277 0.0 0.0 0.00 0.76 0.76 79 1012.9
20260906015723 25 280 0.0 0.0 0.00 0.76 0.76 79 1012.9
20260906015221 26 278 0.0 0.0 0.00 0.76 0.76 78 1012.9
20260906014716 26 279 0.0 1.6 0.00 0.76 0.76 77 1012.9
20260906014212 26 278 0.0 0.0 0.00 0.76 0.76 77 1012.6
20260906013708 26 282 0.0 0.0 0.00 0.76 0.76 77 1012.5
20260906013208 26 281 1.6 1.6 0.00 0.76 0.76 76 1012.8
20260906012704 26 273 0.0 0.0 0.00 0.76 0.76 76 1012.5
20260906012204 26 281 0.0 0.0 0.00 0.76 0.76 75 1012.6
20260906011700 26 282 0.0 0.0 0.00 0.76 0.76 75 1012.3
20260906011159 26 273 0.0 0.0 0.00 0.76 0.76 75 1012.3
20260906010655 26 280 0.0 0.0 0.00 0.76 0.76 74 1012.5
20260906010152 26 280 0.0 0.0 0.00 0.76 0.76 73 1012.3
20260906005651 27 276 1.6 1.6 0.00 0.76 0.76 73 1012.5
20260906005150 27 279 0.0 0.0 0.00 0.76 0.76 71 1012.3
20260906004649 27 289 0.0 0.0 0.00 0.76 0.76 71 1012.5
20260906004144 27 277 0.0 0.0 0.00 0.76 0.76 70 1012.1
20260906003640 27 275 0.0 0.0 0.00 0.76 0.76 69 1012.2
20260906003135 27 280 0.0 0.0 0.00 0.76 0.76 69 1011.9
20260906002630 28 281 0.0 1.6 0.00 0.76 0.76 68 1011.9
20260906002125 28 277 0.0 1.6 0.00 0.76 0.76 67 1011.9
20260906001620 28 279 1.6 1.6 0.00 0.76 0.76 67 1011.9
20260906001120 29 306 1.6 3.2 0.00 0.76 0.76 66 1011.9
20260906000616 29 269 0.0 0.0 0.00 0.76 0.76 64 1011.8
20260906000111 29 286 1.6 1.6 0.00 0.76 0.76 63 1012.0
20260905235610 30 280 0.0 0.0 0.00 0.76 0.76 62 1011.7
20260905235105 30 278 1.6 1.6 0.00 0.76 0.76 61 1011.8
20260905234601 30 277 0.0 0.0 0.00 0.76 0.76 60 1012.0
20260905234056 30 288 0.0 0.0 0.00 0.76 0.76 59 1012.1
20260905233555 30 279 0.0 3.2 0.00 0.76 0.76 57 1012.1
20260905233050 31 281 1.6 3.2 0.00 0.76 0.76 56 1011.9
20260905232546 31 245 1.6 3.2 0.00 0.76 0.76 54 1011.8
20260905232041 32 249 3.2 3.2 0.00 0.76 0.76 55 1012.0
20260905231536 32 269 1.6 1.6 0.00 0.76 0.76 53 1011.9
20260905231032 32 276 1.6 1.6 0.00 0.76 0.76 53 1011.9
20260905230532 32 292 1.6 3.2 0.00 0.76 0.76 52 1011.7
20260905230031 32 283 0.0 1.6 0.00 0.76 0.76 51 1011.9
20260905225525 32 287 1.6 1.6 0.00 0.76 0.76 51 1011.9
20260905225021 32 278 0.0 0.0 0.00 0.76 0.76 49 1011.7
20260905224521 32 292 1.6 1.6 0.00 0.76 0.76 50 1011.7
20260905224020 32 262 1.6 1.6 0.00 0.76 0.76 49 1011.7
20260905223518 33 279 0.0 0.0 0.00 0.76 0.76 49 1011.7
20260905223014 33 282 0.0 0.0 0.00 0.76 0.76 48 1011.8
20260905222513 33 286 0.0 1.6 0.00 0.76 0.76 47 1011.8
20260905222009 32 283 0.0 1.6 0.00 0.76 0.76 47 1011.7
20260905221505 32 285 1.6 1.6 0.00 0.76 0.76 47 1011.5
20260905221001 32 278 0.0 1.6 0.00 0.76 0.76 49 1011.4
20260905220457 32 286 1.6 1.6 0.00 0.76 0.76 49 1011.5
20260905215956 31 291 0.0 1.6 0.00 0.76 0.76 51 1011.5
20260905215452 32 277 0.0 1.6 0.00 0.76 0.76 49 1011.5
20260905214948 33 279 0.0 1.6 0.00 0.76 0.76 47 1011.4
20260905214444 33 270 0.0 1.6 0.00 0.76 0.76 49 1011.3
20260905213943 33 283 0.0 0.0 0.00 0.76 0.76 47 1011.4
20260905213440 33 281 0.0 0.0 0.00 0.76 0.76 48 1011.5
20260905212935 33 290 0.0 1.6 0.00 0.76 0.76 48 1011.5
20260905212430 33 279 0.0 0.0 0.00 0.76 0.76 50 1011.5
20260905211928 32 284 0.0 0.0 0.00 0.76 0.76 50 1011.6
20260905211424 32 281 1.6 1.6 0.00 0.76 0.76 51 1011.4
20260905210920 33 296 1.6 1.6 0.00 0.76 0.76 50 1011.6
20260905210420 32 295 0.0 1.6 0.00 0.76 0.76 51 1011.4
20260905205920 32 291 0.0 1.6 0.00 0.76 0.76 50 1011.6
20260905205415 32 293 0.0 0.0 0.00 0.76 0.76 52 1011.4
20260905204913 32 292 0.0 1.6 0.00 0.76 0.76 51 1011.6
20260905204410 32 282 0.0 1.6 0.00 0.76 0.76 50 1011.3
20260905203909 32 281 1.6 1.6 0.00 0.76 0.76 51 1011.5
20260905203404 32 285 0.0 1.6 0.00 0.76 0.76 52 1011.2
20260905202900 32 285 0.0 0.0 0.00 0.76 0.76 51 1011.3
20260905202355 32 287 0.0 1.6 0.00 0.76 0.76 52 1011.3
20260905201850 32 284 0.0 0.0 0.00 0.76 0.76 52 1011.2
20260905201346 32 293 0.0 1.6 0.00 0.76 0.76 54 1011.2
20260905200845 31 303 0.0 0.0 0.00 0.76 0.76 54 1011.3
20260905200342 31 287 0.0 0.0 0.00 0.76 0.76 54 1011.2
20260905195840 32 285 0.0 0.0 0.00 0.76 0.76 55 1011.3
20260905195335 31 284 0.0 0.0 0.00 0.76 0.76 56 1011.4
20260905194831 31 286 0.0 1.6 0.00 0.76 0.76 55 1011.4
20260905194330 32 262 0.0 0.0 0.00 0.76 0.76 57 1011.6
20260905193829 32 300 0.0 0.0 0.00 0.76 0.76 52 1011.6